| time (UTC) | temp F | wind direction | speed MPH | gust MPH | rain 1hr in | rain 24hr in | rain mn in | humidity % | barometer mb |
| 20260506081545 | 63 | 178 | 5.0 | 15.0 | 0.00 | 0.00 | 0.00 | 76 | 1011.3 |
| 20260506073040 | 63 | 157 | 4.0 | 10.0 | 0.00 | 0.00 | 0.00 | 76 | 1011.7 |
| 20260506071537 | 63 | 180 | 3.0 | 8.0 | 0.00 | 0.00 | 0.00 | 76 | 1011.7 |
| 20260506061530 | 63 | 186 | 4.0 | 11.0 | 0.00 | 0.00 | 0.00 | 73 | 1012.1 |
| 20260506044517 | 65 | 178 | 6.0 | 15.0 | 0.00 | 0.00 | 0.00 | 63 | 1012.6 |
| 20260506043017 | 65 | 140 | 4.0 | 8.0 | 0.00 | 0.00 | 0.00 | 61 | 1012.5 |
| 20260506041512 | 65 | 141 | 3.0 | 10.0 | 0.00 | 0.00 | 0.00 | 59 | 1012.5 |
| 20260506040013 | 65 | 142 | 4.0 | 8.0 | 0.00 | 0.00 | 0.00 | 58 | 1012.4 |
| 20260506034511 | 66 | 152 | 3.0 | 8.0 | 0.00 | 0.00 | 0.00 | 57 | 1012.4 |
| 20260506033013 | 66 | 144 | 2.0 | 7.0 | 0.00 | 0.00 | 0.00 | 56 | 1012.5 |
| 20260506031508 | 67 | 154 | 1.0 | 5.0 | 0.00 | 0.00 | 0.00 | 54 | 1012.5 |
| 20260506030007 | 67 | 169 | 2.0 | 6.0 | 0.00 | 0.00 | 0.00 | 53 | 1012.5 |
| 20260506024523 | 68 | 150 | 3.0 | 7.0 | 0.00 | 0.00 | 0.00 | 53 | 1012.7 |
| 20260506023006 | 68 | 182 | 2.0 | 6.0 | 0.00 | 0.00 | 0.00 | 53 | 1012.7 |
| 20260506021506 | 68 | 168 | 1.0 | 3.0 | 0.00 | 0.00 | 0.00 | 52 | 1012.7 |
| 20260506020008 | 69 | 159 | 1.0 | 5.0 | 0.00 | 0.00 | 0.00 | 51 | 1012.5 |
| 20260506014513 | 69 | 153 | 1.0 | 5.0 | 0.00 | 0.00 | 0.00 | 50 | 1012.5 |
| 20260506013005 | 70 | 158 | 1.0 | 5.0 | 0.00 | 0.00 | 0.00 | 49 | 1012.3 |
| 20260506011511 | 71 | 157 | 1.0 | 6.0 | 0.00 | 0.00 | 0.00 | 48 | 1012.3 |
| 20260506010007 | 71 | 173 | 3.0 | 8.0 | 0.00 | 0.00 | 0.00 | 46 | 1012.3 |
| 20260506004505 | 72 | 175 | 2.0 | 5.0 | 0.00 | 0.00 | 0.00 | 45 | 1012.1 |
| 20260506003003 | 73 | 136 | 1.0 | 6.0 | 0.00 | 0.00 | 0.00 | 43 | 1011.9 |
| 20260506001502 | 74 | 178 | 2.0 | 10.0 | 0.00 | 0.00 | 0.00 | 42 | 1011.8 |
| 20260506000002 | 74 | 186 | 3.0 | 16.0 | 0.00 | 0.00 | 0.00 | 42 | 1011.8 |
| 20260505234505 | 75 | 176 | 5.0 | 10.0 | 0.00 | 0.00 | 0.00 | 42 | 1011.8 |
| 20260505233001 | 76 | 198 | 4.0 | 14.0 | 0.00 | 0.00 | 0.00 | 42 | 1011.7 |
| 20260505231559 | 76 | 232 | 4.0 | 11.0 | 0.00 | 0.00 | 0.00 | 41 | 1011.6 |
| 20260505230059 | 77 | 222 | 6.0 | 21.0 | 0.00 | 0.00 | 0.00 | 40 | 1011.7 |
| 20260505224559 | 77 | 144 | 3.0 | 19.0 | 0.00 | 0.00 | 0.00 | 40 | 1011.9 |
| 20260505223108 | 77 | 196 | 8.0 | 19.0 | 0.00 | 0.00 | 0.00 | 39 | 1012.1 |
| 20260505221603 | 78 | 174 | 8.0 | 16.0 | 0.00 | 0.00 | 0.00 | 38 | 1012.0 |
| 20260505220059 | 78 | 240 | 8.0 | 18.0 | 0.00 | 0.00 | 0.00 | 37 | 1012.0 |
| 20260505214602 | 78 | 225 | 13.0 | 23.0 | 0.00 | 0.00 | 0.00 | 37 | 1012.0 |
| 20260505213055 | 78 | 194 | 11.0 | 25.0 | 0.00 | 0.00 | 0.00 | 35 | 1011.8 |
| 20260505211620 | 79 | 211 | 8.0 | 15.0 | 0.00 | 0.00 | 0.00 | 36 | 1011.8 |
| 20260505210055 | 79 | 202 | 10.0 | 21.0 | 0.00 | 0.00 | 0.00 | 35 | 1011.9 |
| 20260505204555 | 79 | 174 | 11.0 | 23.0 | 0.00 | 0.00 | 0.00 | 34 | 1011.8 |
| 20260505203116 | 80 | 162 | 7.0 | 23.0 | 0.00 | 0.00 | 0.00 | 34 | 1011.7 |
| 20260505201551 | 80 | 246 | 15.0 | 25.0 | 0.00 | 0.00 | 0.00 | 34 | 1012.1 |
| 20260505200048 | 79 | 235 | 8.0 | 25.0 | 0.00 | 0.00 | 0.00 | 35 | 1012.2 |
| 20260505194546 | 79 | 213 | 17.0 | 30.0 | 0.00 | 0.00 | 0.00 | 36 | 1012.3 |
| 20260505193044 | 78 | 241 | 11.0 | 22.0 | 0.00 | 0.00 | 0.00 | 35 | 1012.5 |
| 20260505191547 | 79 | 148 | 9.0 | 19.0 | 0.00 | 0.00 | 0.00 | 33 | 1012.8 |
| 20260505190044 | 78 | 217 | 12.0 | 22.0 | 0.00 | 0.00 | 0.00 | 35 | 1012.8 |
| 20260505184547 | 79 | 211 | 9.0 | 22.0 | 0.00 | 0.00 | 0.00 | 34 | 1013.0 |
| 20260505183043 | 78 | 198 | 12.0 | 25.0 | 0.00 | 0.00 | 0.00 | 31 | 1013.1 |
| 20260505181537 | 79 | 228 | 12.0 | 22.0 | 0.00 | 0.00 | 0.00 | 31 | 1013.2 |
| 20260505180036 | 78 | 176 | 6.0 | 24.0 | 0.00 | 0.00 | 0.00 | 32 | 1013.2 |
| 20260505174534 | 78 | 207 | 11.0 | 22.0 | 0.00 | 0.00 | 0.00 | 35 | 1013.7 |
| 20260505173033 | 78 | 259 | 9.0 | 19.0 | 0.00 | 0.00 | 0.00 | 37 | 1013.6 |
| 20260505171531 | 77 | 185 | 4.0 | 17.0 | 0.00 | 0.00 | 0.00 | 39 | 1013.8 |
| 20260505170035 | 77 | 242 | 7.0 | 16.0 | 0.00 | 0.00 | 0.00 | 40 | 1014.0 |
| 20260505164533 | 76 | 213 | 5.0 | 11.0 | 0.00 | 0.00 | 0.00 | 45 | 1014.2 |
| 20260505163028 | 76 | 190 | 5.0 | 17.0 | 0.00 | 0.00 | 0.00 | 40 | 1014.4 |
| 20260505161523 | 75 | 259 | 5.0 | 12.0 | 0.00 | 0.00 | 0.00 | 42 | 1014.6 |
| 20260505153014 | 74 | 213 | 5.0 | 13.0 | 0.00 | 0.00 | 0.00 | 46 | 1015.0 |
| 20260505151509 | 73 | 254 | 8.0 | 13.0 | 0.00 | 0.00 | 0.00 | 47 | 1015.1 |
| 20260505124527 | 60 | 233 | 0.0 | 5.0 | 0.00 | 0.00 | 0.00 | 67 | 1015.4 |
| 20260505123022 | 59 | 177 | 1.0 | 7.0 | 0.00 | 0.00 | 0.00 | 66 | 1015.4 |
| 20260505121520 | 58 | 188 | 1.0 | 5.0 | 0.00 | 0.00 | 0.00 | 66 | 1015.3 |
| 20260505120018 | 58 | 200 | 2.0 | 4.0 | 0.00 | 0.00 | 0.00 | 66 | 1015.3 |
| 20260505114516 | 56 | 208 | 3.0 | 7.0 | 0.00 | 0.00 | 0.00 | 67 | 1015.2 |
| 20260505113017 | 55 | 144 | 1.0 | 3.0 | 0.00 | 0.00 | 0.00 | 69 | 1014.9 |
| 20260505111521 | 54 | 144 | 1.0 | 5.0 | 0.00 | 0.00 | 0.00 | 69 | 1014.7 |
| 20260505101602 | 54 | 193 | 2.0 | 5.0 | 0.00 | 0.00 | 0.00 | 67 | 1014.2 |
| 20260505100057 | 54 | 153 | 3.0 | 5.0 | 0.00 | 0.00 | 0.00 | 66 | 1014.2 |
| 20260505094601 | 55 | 149 | 2.0 | 4.0 | 0.00 | 0.00 | 0.00 | 66 | 1014.0 |
| 20260505093056 | 55 | 167 | 3.0 | 5.0 | 0.00 | 0.00 | 0.00 | 65 | 1014.1 |
| 20260505091551 | 55 | 144 | 3.0 | 5.0 | 0.00 | 0.00 | 0.00 | 65 | 1014.0 |
| 20260505090056 | 55 | 144 | 1.0 | 4.0 | 0.00 | 0.00 | 0.00 | 64 | 1014.0 |
| 20260505084550 | 55 | 140 | 1.0 | 5.0 | 0.00 | 0.00 | 0.00 | 65 | 1013.9 |
| 20260505083102 | 55 | 144 | 3.0 | 8.0 | 0.00 | 0.00 | 0.00 | 65 | 1013.7 |